Tracking 30995 objects as of 5-Jul-2025
HD Live streaming from Space Station
objects crossing your sky now

OPS 4682 DEB

Track OPS 4682 DEB now!
10-day predictions


NORAD ID: 18270
Int'l Code: 1965-027Z
Perigee: 1,260.3 km
Apogee: 1,301.6 km
Inclination: 90.2 °
Period: 111.0 minutes
Semi major axis: 7651 km
RCS: 0.0112 m2 (small)
Launch date: April 3, 1965
Source: United States (US)
Launch site: AIR FORCE WESTERN TEST RANGE (AFWTR)

Note: This is SATELLITE DEBRIS
Your satellite tracking list
Your tracking list is empty




NASA's NSSDC Master Catalog

Two Line Element Set (TLE):
1 18270U 65027Z   25183.95065613  .00000589  00000-0  20161-2 0  9996
2 18270  90.2333 352.1432 0027014 300.2888 213.2759 12.97008091871319
Source of the keplerian elements: AFSPC